Location: Limerick
(52.6800°N, 8.6400°W)
Time: 09:38:45
(UTC+01:00)

Amateur Radio Satellites - All Passes

Search period start: 03 August 2015 09:08
Search period end: 04 August 2015 09:08
Location: Limerick, 52.6800°N, 8.6400°W

Satellite Date Start Highest point End Downlink Frequencies (MHz)
Time Altitude Azimuth
YUBILEINY 03 Aug 09:11:58 09:16:19 15° 36° (NE) 09:21:02 435.215
COMPASS 1 03 Aug 09:19:09 09:21:06 13° 85° (E) 09:23:13 437.405
CUTE-I 03 Aug 09:28:17 09:32:59 32° 300° (WNW) 09:37:37 437.470
BEESAT 2 03 Aug 09:34:01 09:37:05 20° 243° (WSW) 09:40:02 435.950
PCSat 03 Aug 09:35:26 09:40:18 36° 116° (ESE) 09:45:16 145.827
SEEDS 03 Aug 09:36:36 09:40:01 23° 91° (E) 09:43:28 437.485
AIST 2 03 Aug 09:42:04 09:46:13 55° 233° (SW) 09:50:16 435.215
CUTE 1.7 + AOD 2 03 Aug 09:42:35 09:46:26 31° 94° (E) 09:50:17 437.475
GONETS M04 03 Aug 09:44:20 09:51:00 23° 312° (NW) 09:57:25
M-CUBED/EXP-1 PRIME 03 Aug 09:49:56 09:54:11 88° 249° (WSW) 09:58:49 437.505
CANX-2 03 Aug 09:51:10 09:55:16 41° 97° (E) 09:59:21 2200.000
UWE-3 03 Aug 09:54:40 09:56:16 12° 83° (E) 09:58:06 435.000/436.395/437.385
QB50P2 03 Aug 09:54:58 09:56:07 11° 53° (NE) 09:57:26 145.880/145.840
Oscar 11 03 Aug 09:55:49 09:57:47 13° 84° (E) 09:59:57 145.826/435.025
CINEMA 3 03 Aug 09:55:58 09:59:58 28° 93° (E) 10:04:10 145.822/145.860
Cosmos 2499 03 Aug 09:56:13 10:03:36 48° 293° (WNW) 10:11:33 435.465 / 435.565
UNISAT 6 03 Aug 09:56:44 10:00:15 24° 60° (ENE) 10:03:54 437.425
AAUSAT CUBESAT 2 03 Aug 09:57:40 10:01:10 25° 92° (E) 10:04:42 437.432
O/OREOS (USA 219) 03 Aug 09:59:59 10:03:38 23° 42° (NE) 10:07:22 437.305
SO-50 03 Aug 10:01:30 10:05:58 40° 122° (ESE) 10:10:35 436.795
DOVE 4 03 Aug 10:01:32 10:06:03 58° 101° (E) 10:10:51 437.250
CUBEBUG 2 03 Aug 10:13:13 10:16:43 21° 90° (E) 10:20:22 437.445
Cubesat XI-IV 03 Aug 10:13:48 10:17:15 17° 309° (NW) 10:20:32 437.490
DUCHIFAT 1 03 Aug 10:15:38 10:18:01 15° 57° (ENE) 10:20:32 145.980
AUBIESAT-1 03 Aug 10:17:24 10:21:35 58° 253° (WSW) 10:26:06 437.475
HO-68 03 Aug 10:19:54 10:27:04 64° 103° (ESE) 10:34:13 435.675
QB50P1 03 Aug 10:20:11 10:22:54 17° 58° (ENE) 10:25:43 145.935-145.965
NANOSAT C BR1 03 Aug 10:20:33 10:23:14 17° 58° (ENE) 10:26:02 145.865
GOMX 1 03 Aug 10:23:23 10:27:48 63° 288° (WNW) 10:32:30 467.674
BRITE-PL 03 Aug 10:23:33 10:27:37 40° 292° (WNW) 10:31:54 437.365/2234.400
TIGRISAT 03 Aug 10:38:14 10:42:28 49° 68° (ENE) 10:46:52 435.000
ANTELSAT 03 Aug 10:40:54 10:45:12 54° 69° (ENE) 10:49:39 437.575/2403.000
AO-7 03 Aug 10:48:57 10:51:38 12° 351° (N) 10:54:14 29.400- 29.500
COMPASS 1 03 Aug 10:53:11 10:57:27 85° 285° (WNW) 11:01:40 437.405
ZACube-1 03 Aug 11:00:30 11:04:39 34° 95° (E) 11:08:52 437.345
POLYITAN 1 03 Aug 11:02:59 11:06:52 38° 67° (ENE) 11:10:50 437.675
DELFI C3 03 Aug 11:03:49 11:07:37 36° 96° (E) 11:11:24 145.870
YUBILEINY 03 Aug 11:07:53 11:16:15 45° 65° (ENE) 11:24:40 435.215
Cosmos 2504 03 Aug 11:10:14 11:11:06 10° 31° (NNE) 11:12:21 435.465 / 435.565
SEEDS 03 Aug 11:11:55 11:16:03 48° 291° (WNW) 11:20:09 437.485
BUGSAT 1 03 Aug 11:12:08 11:15:39 30° 65° (ENE) 11:19:12 437.445
PCSat 03 Aug 11:18:16 11:23:36 54° 317° (NW) 11:28:57 145.827
CUTE 1.7 + AOD 2 03 Aug 11:18:25 11:22:24 36° 294° (WNW) 11:26:19 437.475
POPSAT HIP 1 03 Aug 11:18:56 11:23:01 52° 70° (ENE) 11:27:09 437.405
FUNcube-1 03 Aug 11:21:04 11:25:29 51° 99° (E) 11:29:59 145.935
QB50P2 03 Aug 11:27:04 11:31:14 64° 72° (ENE) 11:35:27 145.880/145.840
CANX-2 03 Aug 11:27:20 11:31:04 28° 296° (WNW) 11:34:44 2200.000
M-CUBED/EXP-1 PRIME 03 Aug 11:27:33 11:29:48 13° 271° (W) 11:31:56 437.505
UWE-3 03 Aug 11:29:02 11:33:39 76° 104° (ESE) 11:38:19 435.000/436.395/437.385
HUMSAT D 03 Aug 11:29:42 11:33:30 29° 94° (E) 11:37:19 437.325/437.525
Oscar 11 03 Aug 11:30:17 11:34:41 89° 286° (WNW) 11:39:03 145.826/435.025
UNISAT 6 03 Aug 11:32:24 11:36:43 54° 260° (W) 11:41:12 437.425
UKube-1 03 Aug 11:32:30 11:35:37 20° 90° (E) 11:38:50 .
CINEMA 3 03 Aug 11:32:53 11:37:21 47° 291° (WNW) 11:41:58 145.822/145.860
AAUSAT CUBESAT 2 03 Aug 11:32:56 11:36:57 42° 292° (WNW) 11:40:54 437.432
O/OREOS (USA 219) 03 Aug 11:38:59 11:43:35 72° 244° (WSW) 11:48:09 437.305
DOVE 4 03 Aug 11:39:55 11:43:34 24° 298° (WNW) 11:47:18 437.250
SO-50 03 Aug 11:41:44 11:46:29 50° 324° (NW) 11:51:20 436.795
AISAT 03 Aug 11:48:16 11:51:31 20° 90° (E) 11:54:52 437.250
DUCHIFAT 1 03 Aug 11:49:05 11:53:17 85° 255° (WSW) 11:57:31 145.980
CUBEBUG 2 03 Aug 11:49:13 11:53:48 61° 288° (WNW) 11:58:27 437.445
Cosmos 2491 03 Aug 11:51:31 11:58:35 30° 80° (E) 12:05:52 435.465 / 435.565
QB50P1 03 Aug 11:54:06 11:58:18 74° 257° (WSW) 12:02:32 145.935-145.965
NANOSAT C BR1 03 Aug 11:54:24 11:58:36 75° 256° (WSW) 12:02:50 145.865
Cosmos 2499 03 Aug 11:55:05 11:59:30 15° 322° (NW) 12:03:47 435.465 / 435.565
CUBEBUG 1 03 Aug 11:56:08 11:58:30 15° 86° (E) 12:01:01 437.445
DX 1 03 Aug 12:03:26 12:07:32 39° 98° (E) 12:11:38 434.975-435.025
GOMX 1 03 Aug 12:03:39 12:05:15 12° 306° (NW) 12:06:43 467.674
HO-68 03 Aug 12:08:03 12:14:32 37° 305° (NW) 12:20:56 435.675
TIGRISAT 03 Aug 12:15:53 12:19:31 24° 269° (W) 12:23:10 435.000
50 SAT 03 Aug 12:17:38 12:21:25 40° 97° (E) 12:25:12 437.505
ANTELSAT 03 Aug 12:18:49 12:22:21 22° 270° (W) 12:25:52 437.575/2403.000
VELOX 1 03 Aug 12:26:04 12:30:15 41° 98° (E) 12:34:27 145.980
COMPASS 1 03 Aug 12:30:13 12:32:30 14° 304° (NW) 12:34:39 437.405
ZACube-1 03 Aug 12:36:51 12:41:01 36° 294° (WNW) 12:45:12 437.345
AO-7 03 Aug 12:37:07 12:40:50 14° 20° (NNE) 12:44:45 29.400- 29.500
DELFI C3 03 Aug 12:39:04 12:42:36 28° 296° (WNW) 12:46:04 145.870
POLYITAN 1 03 Aug 12:39:12 12:42:53 28° 266° (W) 12:46:33 437.675
AIST 1 03 Aug 12:44:26 12:48:41 58° 96° (E) 12:52:57
ESTCUBE 1 03 Aug 12:46:28 12:50:51 48° 99° (E) 12:55:12 437.505/2401.250
Oscar 19 03 Aug 12:46:45 12:51:01 28° 59° (ENE) 12:55:21 437.125/150
BUGSAT 1 03 Aug 12:47:22 12:51:04 34° 264° (W) 12:54:46 437.445
POPSAT HIP 1 03 Aug 12:55:57 12:59:13 21° 270° (W) 13:02:24 437.405
FUNcube-1 03 Aug 12:57:48 13:01:35 26° 298° (WNW) 13:05:20 145.935
Cosmos 2504 03 Aug 12:59:28 13:06:43 32° 59° (ENE) 13:14:18 435.465 / 435.565
PCSat 03 Aug 13:03:57 13:08:11 22° 341° (NNW) 13:12:23 145.827
QB50P2 03 Aug 13:04:43 13:07:36 17° 272° (W) 13:10:23 145.880/145.840
YUBILEINY 03 Aug 13:04:53 13:13:27 57° 269° (W) 13:21:58 435.215
HUMSAT D 03 Aug 13:05:16 13:09:19 39° 293° (WNW) 13:13:21 437.325/437.525
UWE-3 03 Aug 13:06:26 13:09:42 19° 302° (WNW) 13:12:55 435.000/436.395/437.385
Oscar 11 03 Aug 13:07:40 13:10:17 15° 304° (NW) 13:12:46 145.826/435.025
UKube-1 03 Aug 13:07:52 13:12:09 58° 290° (WNW) 13:16:23 .
O/OREOS (USA 219) 03 Aug 13:20:49 13:22:15 11° 262° (W) 13:23:27 437.305
SO-50 03 Aug 13:24:07 13:28:04 23° 347° (NNW) 13:32:03 436.795
AISAT 03 Aug 13:24:08 13:28:29 59° 290° (WNW) 13:32:50 437.250
CUBEBUG 2 03 Aug 13:27:51 13:29:41 12° 307° (NW) 13:31:22 437.445
DUCHIFAT 1 03 Aug 13:28:20 13:29:51 11° 276° (W) 13:31:11 145.980
CUBEBUG 1 03 Aug 13:31:07 13:35:28 79° 288° (WNW) 13:39:49 437.445
DX 1 03 Aug 13:39:52 13:43:41 30° 297° (WNW) 13:47:26 434.975-435.025
Cosmos 2491 03 Aug 13:45:55 13:54:43 79° 283° (WNW) 14:03:30 435.465 / 435.565
50 SAT 03 Aug 13:52:30 13:55:50 25° 296° (WNW) 13:59:06 437.505
HO-68 03 Aug 13:57:21 14:00:25 13° 328° (NNW) 14:03:16 435.675
SPROUT 03 Aug 13:58:13 14:02:31 69° 102° (ESE) 14:06:49 437.525
TISAT 1 03 Aug 14:00:59 14:05:04 46° 99° (E) 14:09:09 437.305
VELOX 1 03 Aug 14:02:51 14:06:41 29° 297° (WNW) 14:10:29 145.980
Gurwin Techsat 1B 03 Aug 14:03:21 14:08:14 39° 64° (ENE) 14:13:12 435.225
BEESAT 03 Aug 14:06:11 14:08:12 13° 84° (E) 14:10:27 436.000
JAS-2 03 Aug 14:06:52 14:12:14 27° 51° (NE) 14:18:11 435.910
ITAMSAT 1 03 Aug 14:12:05 14:16:56 41° 64° (ENE) 14:21:50 435.822/435.867
AIST 1 03 Aug 14:23:30 14:26:45 20° 297° (WNW) 14:29:56
ESTCUBE 1 03 Aug 14:23:43 14:27:31 27° 298° (WNW) 14:31:13 437.505/2401.250
AO-7 03 Aug 14:24:10 14:31:08 31° 46° (NE) 14:38:12 29.400- 29.500
Oscar 19 03 Aug 14:25:03 14:30:06 58° 259° (W) 14:35:12 437.125/150
SWISSCUBE 03 Aug 14:26:03 14:29:33 20° 89° (E) 14:33:09 437.505
HORYU 2 03 Aug 14:33:17 14:34:49 12° 51° (NE) 14:36:32 437.375
UKube-1 03 Aug 14:46:19 14:47:28 11° 309° (NW) 14:48:26 .
ITUPSAT 1 03 Aug 14:47:50 14:51:57 28° 93° (E) 14:56:04 437.325
PCSat 03 Aug 14:49:48 14:53:31 18° 6° (N) 14:57:15 145.827
Cosmos 2504 03 Aug 14:51:29 14:59:51 79° 262° (W) 15:08:28 435.465 / 435.565
DANDE 03 Aug 15:02:06 15:05:07 25° 70° (ENE) 15:08:54 436.750
AISAT 03 Aug 15:02:56 15:04:14 11° 309° (NW) 15:05:23 437.250
YUBILEINY 03 Aug 15:04:03 15:08:25 14° 292° (WNW) 15:12:19 435.215
CUSAT 1 03 Aug 15:04:59 15:08:45 44° 73° (ENE) 15:13:43 437.405
SO-50 03 Aug 15:06:13 15:10:07 22° 11° (N) 15:14:03 436.795
CUBEBUG 1 03 Aug 15:08:58 15:11:12 14° 306° (NW) 15:13:17 437.445
SPROUT 03 Aug 15:35:08 15:38:11 19° 301° (WNW) 15:41:09 437.525
TISAT 1 03 Aug 15:37:10 15:40:38 25° 298° (WNW) 15:44:02 437.305
BEESAT 03 Aug 15:42:07 15:46:57 80° 103° (ESE) 15:51:43 436.000
Gurwin Techsat 1B 03 Aug 15:43:14 15:48:15 40° 263° (W) 15:53:16 435.225
Cosmos 2491 03 Aug 15:46:19 15:53:17 25° 309° (NW) 16:00:03 435.465 / 435.565
GONETS M04 03 Aug 15:49:44 15:56:30 25° 51° (NE) 16:03:28
JAS-2 03 Aug 15:50:01 15:56:28 87° 254° (WSW) 16:03:50 435.910
ITAMSAT 1 03 Aug 15:51:41 15:56:32 37° 264° (W) 16:01:21 435.822/435.867
Cosmos 2499 03 Aug 15:55:22 15:56:19 10° 27° (NNE) 15:57:38 435.465 / 435.565
KKS-1 03 Aug 15:56:07 15:59:46 24° 92° (E) 16:03:28 437.445
SWISSCUBE 03 Aug 16:03:09 16:07:55 66° 290° (WNW) 16:12:38 437.505
HORYU 2 03 Aug 16:06:14 16:10:39 62° 70° (ENE) 16:15:07 437.375
AO-7 03 Aug 16:14:44 16:23:07 89° 70° (ENE) 16:31:34 29.400- 29.500
ITUPSAT 1 03 Aug 16:25:27 16:30:04 48° 293° (WNW) 16:34:38 437.325
PCSat 03 Aug 16:33:43 16:38:35 32° 32° (NNE) 16:43:27 145.827
Cubesat XI-IV 03 Aug 16:44:23 16:46:54 14° 48° (NE) 16:49:34 437.490
Cosmos 2504 03 Aug 16:44:54 16:50:59 22° 284° (WNW) 16:56:53 435.465 / 435.565
DANDE 03 Aug 16:44:54 16:48:14 33° 262° (W) 16:52:27 436.750
SO-50 03 Aug 16:46:59 16:51:47 45° 34° (NE) 16:56:33 436.795
CUSAT 1 03 Aug 16:47:49 16:51:14 24° 264° (W) 16:55:21 437.405
STARS 03 Aug 16:59:11 17:03:34 57° 101° (E) 17:07:56 437.465
MOZHAYETS 4 03 Aug 17:04:18 17:07:32 19° 88° (E) 17:10:51
BEESAT 03 Aug 17:20:51 17:24:17 20° 304° (NW) 17:27:36 436.000
KKS-1 03 Aug 17:32:20 17:36:39 49° 292° (WNW) 17:40:58 437.445
CUTE-I 03 Aug 17:36:56 17:41:27 29° 59° (ENE) 17:46:02 437.470
JAS-2 03 Aug 17:37:54 17:42:49 21° 279° (W) 17:47:55 435.910
SWISSCUBE 03 Aug 17:42:36 17:44:58 13° 309° (NW) 17:47:09 437.505
HORYU 2 03 Aug 17:44:23 17:47:43 20° 270° (W) 17:50:59 437.375
Cosmos 2499 03 Aug 17:45:50 17:53:12 31° 56° (ENE) 18:00:54 435.465 / 435.565
GONETS M04 03 Aug 17:46:16 17:55:02 80° 78° (ENE) 18:03:49
ITUPSAT 1 03 Aug 18:06:12 18:06:57 10° 313° (NW) 18:07:30 437.325
AO-7 03 Aug 18:10:14 18:17:07 26° 272° (W) 18:23:47 29.400- 29.500
PCSat 03 Aug 18:17:05 18:22:32 77° 234° (SW) 18:27:58 145.827
Cubesat XI-IV 03 Aug 18:20:47 18:26:02 57° 68° (ENE) 18:31:19 437.490
SO-50 03 Aug 18:27:39 18:32:26 47° 235° (SW) 18:37:06 436.795
STARS 03 Aug 18:36:12 18:39:42 23° 300° (WNW) 18:43:08 437.465
MOZHAYETS 4 03 Aug 18:40:38 18:45:17 68° 288° (WNW) 18:49:52
CUBESAT XI-V 03 Aug 19:04:51 19:08:43 27° 92° (E) 19:12:39 437.345
HO-68 03 Aug 19:09:01 19:14:33 26° 48° (NE) 19:20:14 435.675
CUTE-I 03 Aug 19:15:58 19:21:16 59° 259° (WSW) 19:26:35 437.470
CANX-2 03 Aug 19:17:30 19:18:37 11° 53° (NE) 19:19:56 2200.000
DOVE 4 03 Aug 19:37:44 19:40:20 17° 58° (ENE) 19:43:05 437.250
Cosmos 2499 03 Aug 19:38:47 19:47:32 86° 262° (W) 19:56:28 435.465 / 435.565
GONETS M04 03 Aug 19:43:54 19:51:08 30° 280° (W) 19:58:10
GOMX 1 03 Aug 20:00:17 20:04:06 36° 67° (ENE) 20:07:57 467.674
PCSat 03 Aug 20:01:53 20:05:12 16° 254° (WSW) 20:08:18 145.827
Cubesat XI-IV 03 Aug 20:01:56 20:06:31 27° 268° (W) 20:11:03 437.490
BRITE-PL 03 Aug 20:02:11 20:06:23 61° 72° (ENE) 20:10:29 437.365/2234.400
COMPASS 1 03 Aug 20:15:36 20:18:43 21° 60° (ENE) 20:21:56 437.405
MOZHAYETS 4 03 Aug 20:19:31 20:21:44 13° 307° (NW) 20:23:47
SEEDS 03 Aug 20:34:03 20:37:55 34° 66° (ENE) 20:41:50 437.485
STRAND 1 03 Aug 20:35:29 20:40:32 54° 101° (E) 20:45:31 437.568
RS-15 03 Aug 20:39:35 20:47:03 23° 101° (E) 20:55:10 29.354- 29.394
PRISM 03 Aug 20:40:20 20:44:21 49° 100° (E) 20:48:21 437.425
CUTE 1.7 + AOD 2 03 Aug 20:40:52 20:44:58 47° 69° (ENE) 20:49:08 437.475
CUBESAT XI-V 03 Aug 20:41:57 20:46:24 47° 292° (WNW) 20:50:48 437.345
FUNcube-1 03 Aug 20:48:59 20:51:05 14° 54° (NE) 20:53:20 145.935
CANX-2 03 Aug 20:49:31 20:53:45 62° 72° (ENE) 20:58:02 2200.000
AAUSAT CUBESAT 2 03 Aug 20:53:47 20:57:40 37° 67° (ENE) 21:01:36 437.432
HO-68 03 Aug 20:54:19 21:01:29 84° 70° (ENE) 21:08:42 435.675
Oscar 11 03 Aug 20:55:47 20:59:08 22° 61° (ENE) 21:02:34 145.826/435.025
UWE-3 03 Aug 20:57:09 21:00:10 19° 59° (ENE) 21:03:21 435.000/436.395/437.385
CUTE-I 03 Aug 21:01:47 21:02:39 10° 280° (W) 21:03:11 437.470
CINEMA 3 03 Aug 21:03:44 21:07:43 45° 68° (ENE) 21:11:53 145.822/145.860
DOVE 4 03 Aug 21:13:31 21:17:39 73° 257° (WSW) 21:21:53 437.250
CUBEBUG 2 03 Aug 21:17:16 21:21:03 33° 65° (ENE) 21:25:00 437.445
DX 1 03 Aug 21:31:19 21:33:16 13° 53° (NE) 21:35:22 434.975-435.025
Cosmos 2499 03 Aug 21:32:57 21:39:43 25° 282° (WNW) 21:46:19 435.465 / 435.565
GOMX 1 03 Aug 21:38:46 21:42:23 28° 267° (W) 21:45:58 467.674
BRITE-PL 03 Aug 21:42:31 21:45:24 17° 271° (W) 21:48:08 437.365/2234.400
COMPASS 1 03 Aug 21:49:51 21:54:02 59° 259° (W) 21:58:16 437.405
Cosmos 2491 03 Aug 21:52:24 21:58:53 23° 49° (NE) 22:05:34 435.465 / 435.565
VELOX 1 03 Aug 21:55:31 21:57:40 14° 54° (NE) 21:59:58 145.980
DELFI C3 03 Aug 21:56:17 22:00:14 50° 70° (ENE) 22:04:14 145.870
ZACube-1 03 Aug 22:02:07 22:06:16 53° 70° (ENE) 22:10:34 437.345
SEEDS 03 Aug 22:09:51 22:13:44 32° 266° (W) 22:17:35 437.485
STRAND 1 03 Aug 22:15:07 22:19:30 29° 300° (WNW) 22:23:49 437.568
PRISM 03 Aug 22:16:15 22:19:33 23° 299° (WNW) 22:22:46 437.425
ESTCUBE 1 03 Aug 22:17:13 22:19:54 16° 56° (NE) 22:22:44 437.505/2401.250
CUTE 1.7 + AOD 2 03 Aug 22:17:36 22:21:08 24° 269° (W) 22:24:37 437.475
FUNcube-1 03 Aug 22:22:28 22:26:42 80° 76° (ENE) 22:31:06 145.935
ISS 03 Aug 22:23:26 22:26:26 35° 155° (SSE) 22:29:27 145.825
HUMSAT D 03 Aug 22:26:56 22:30:53 43° 68° (ENE) 22:34:56 437.325/437.525
CANX-2 03 Aug 22:27:02 22:30:07 18° 272° (W) 22:33:07 2200.000
AAUSAT CUBESAT 2 03 Aug 22:29:37 22:33:20 29° 266° (W) 22:37:03 437.432
Oscar 11 03 Aug 22:30:43 22:35:00 56° 260° (W) 22:39:20 145.826/435.025
UWE-3 03 Aug 22:32:03 22:36:16 66° 258° (WSW) 22:40:39 435.000/436.395/437.385
UKube-1 03 Aug 22:32:36 22:36:32 36° 65° (ENE) 22:40:31 .
CINEMA 3 03 Aug 22:41:46 22:45:12 23° 269° (W) 22:48:40 145.822/145.860
HO-68 03 Aug 22:44:24 22:50:10 25° 272° (W) 22:55:47 435.675
AIST 1 03 Aug 22:45:33 22:49:15 28° 67° (ENE) 22:52:58
RS-15 03 Aug 22:46:39 22:57:31 72° 125° (SE) 23:08:54 29.354- 29.394
AISAT 03 Aug 22:51:24 22:55:26 37° 66° (ENE) 22:59:32 437.250
CUBEBUG 2 03 Aug 22:53:52 22:57:45 34° 265° (W) 23:01:45 437.445
CUBEBUG 1 03 Aug 22:57:31 23:01:07 26° 62° (ENE) 23:04:47 437.445
PHONESAT 2.4 03 Aug 22:57:51 22:58:58 11° 186° (S) 23:00:04 2401.200-2431.200
M-CUBED/EXP-1 PRIME 03 Aug 22:59:56 23:04:17 33° 100° (E) 23:08:33 437.505
DX 1 03 Aug 23:04:31 23:08:50 74° 72° (ENE) 23:13:11 434.975-435.025
50 SAT 03 Aug 23:06:45 23:10:34 52° 70° (ENE) 23:14:26 437.505
UNISAT 6 03 Aug 23:18:31 23:22:12 23° 90° (E) 23:25:59 437.425
SPROUT 03 Aug 23:23:48 23:26:35 18° 58° (ENE) 23:29:29 437.525
TISAT 1 03 Aug 23:25:52 23:27:38 13° 54° (NE) 23:29:32 437.305
AUBIESAT-1 03 Aug 23:26:31 23:31:08 47° 104° (ESE) 23:35:38 437.475
VELOX 1 03 Aug 23:29:09 23:33:33 77° 73° (ENE) 23:37:59 145.980
DUCHIFAT 1 03 Aug 23:30:07 23:31:02 11° 83° (E) 23:32:09 145.980
DELFI C3 03 Aug 23:32:28 23:35:36 20° 270° (W) 23:38:40 145.870
BEESAT 2 03 Aug 23:32:55 23:35:38 18° 115° (ESE) 23:38:27 435.950
QB50P1 03 Aug 23:34:47 23:36:35 13° 85° (E) 23:38:34 145.935-145.965
NANOSAT C BR1 03 Aug 23:34:55 23:36:39 12° 85° (E) 23:38:34 145.865
ZACube-1 03 Aug 23:39:41 23:42:59 21° 270° (W) 23:46:17 437.345
Cosmos 2491 03 Aug 23:48:53 23:57:38 74° 75° (ENE) 00:06:21 435.465 / 435.565
ESTCUBE 1 03 Aug 23:51:38 23:56:11 89° 78° (ENE) 00:00:45 437.505/2401.250
ISS 03 Aug 23:59:23 00:02:39 73° 176° (S) 00:05:55 145.825
TIGRISAT 04 Aug 00:00:13 00:04:46 49° 99° (E) 00:09:21 435.000
FUNcube-1 04 Aug 00:01:18 00:03:43 14° 275° (W) 00:06:01 145.935
ANTELSAT 04 Aug 00:03:12 00:07:49 53° 100° (E) 00:12:27 437.575/2403.000
HUMSAT D 04 Aug 00:03:17 00:06:48 25° 268° (W) 00:10:19 437.325/437.525
BEESAT 3 04 Aug 00:07:21 00:11:11 41° 124° (SE) 00:15:04 437.485
UKube-1 04 Aug 00:08:48 00:12:43 32° 264° (W) 00:16:36 .
YUBILEINY 04 Aug 00:16:59 00:24:45 39° 85° (E) 00:32:43 435.215
POLYITAN 1 04 Aug 00:17:58 00:21:47 31° 95° (E) 00:25:39 437.675
AIST 1 04 Aug 00:23:04 00:27:01 37° 267° (W) 00:30:55
BUGSAT 1 04 Aug 00:23:28 00:26:39 22° 92° (E) 00:29:56 437.445
ITUPSAT 1 04 Aug 00:25:48 00:27:51 13° 50° (NE) 00:30:03 437.325
AISAT 04 Aug 00:28:08 00:32:06 31° 265° (W) 00:36:01 437.250
CUBEBUG 1 04 Aug 00:33:07 00:37:18 45° 261° (W) 00:41:29 437.445
POPSAT HIP 1 04 Aug 00:33:44 00:37:49 42° 98° (E) 00:41:54 437.405
M-CUBED/EXP-1 PRIME 04 Aug 00:34:32 00:39:09 45° 299° (WNW) 00:43:39 437.505
QB50P2 04 Aug 00:42:05 00:46:17 52° 100° (E) 00:50:29 145.880/145.840
50 SAT 04 Aug 00:42:36 00:45:27 19° 270° (W) 00:48:15 437.505
DX 1 04 Aug 00:42:55 00:45:39 16° 272° (W) 00:48:15 434.975-435.025
UNISAT 6 04 Aug 00:54:43 00:59:21 58° 290° (WNW) 01:03:58 437.425
SPROUT 04 Aug 00:57:56 01:02:12 74° 257° (WSW) 01:06:30 437.525
TISAT 1 04 Aug 00:58:33 01:02:44 76° 73° (ENE) 01:06:56 437.305
RS-15 04 Aug 00:59:41 01:10:36 57° 334° (NNW) 01:22:03 29.354- 29.394
AUBIESAT-1 04 Aug 01:01:25 01:05:39 32° 304° (NW) 01:09:48 437.475
DUCHIFAT 1 04 Aug 01:03:22 01:07:39 78° 104° (ESE) 01:11:54 145.980
VELOX 1 04 Aug 01:07:59 01:10:42 15° 273° (W) 01:13:18 145.980
QB50P1 04 Aug 01:08:52 01:13:09 89° 289° (WNW) 01:17:26 145.935-145.965
NANOSAT C BR1 04 Aug 01:08:55 01:13:12 89° 101° (E) 01:17:28 145.865
BEESAT 2 04 Aug 01:09:05 01:13:13 80° 314° (NW) 01:17:22 435.950
BEESAT 04 Aug 01:17:31 01:21:38 30° 62° (ENE) 01:25:48 436.000
AIST 2 04 Aug 01:23:06 01:27:08 44° 124° (SE) 01:31:13 435.215
ESTCUBE 1 04 Aug 01:31:20 01:33:47 14° 275° (W) 01:36:04 437.505/2401.250
ISS 04 Aug 01:35:46 01:38:59 56° 194° (SSW) 01:42:11 145.825
TIGRISAT 04 Aug 01:37:18 01:41:19 28° 298° (WNW) 01:45:18 435.000
SWISSCUBE 04 Aug 01:37:58 01:42:31 45° 66° (ENE) 01:47:07 437.505
ANTELSAT 04 Aug 01:40:25 01:44:21 26° 298° (WNW) 01:48:14 437.575/2403.000
Cosmos 2504 04 Aug 01:41:05 01:45:10 16° 72° (ENE) 01:49:45 435.465 / 435.565
BEESAT 3 04 Aug 01:45:18 01:49:10 39° 324° (NW) 01:53:03 437.485
Cosmos 2491 04 Aug 01:46:25 01:53:53 32° 278° (W) 02:01:10 435.465 / 435.565
POLYITAN 1 04 Aug 01:53:47 01:57:44 36° 294° (WNW) 02:01:39 437.675
O/OREOS (USA 219) 04 Aug 01:57:11 02:01:21 40° 110° (ESE) 02:05:38 437.305
BUGSAT 1 04 Aug 01:58:27 02:02:22 46° 291° (WNW) 02:06:18 437.445
ITUPSAT 1 04 Aug 02:00:09 02:04:54 62° 70° (ENE) 02:09:41 437.325
POPSAT HIP 1 04 Aug 02:09:54 02:13:33 27° 297° (WNW) 02:17:08 437.405
M-CUBED/EXP-1 PRIME 04 Aug 02:11:12 02:12:54 12° 319° (NW) 02:14:26 437.505
YUBILEINY 04 Aug 02:12:38 02:21:18 62° 288° (WNW) 02:30:01 435.215
QB50P2 04 Aug 02:18:30 02:21:54 23° 299° (WNW) 02:25:14 145.880/145.840
STARS 04 Aug 02:27:16 02:30:06 18° 57° (ENE) 02:33:04 437.465
Oscar 19 04 Aug 02:30:31 02:35:09 33° 94° (E) 02:39:50 437.125/150
UNISAT 6 04 Aug 02:33:30 02:35:15 12° 309° (NW) 02:36:50 437.425
TISAT 1 04 Aug 02:36:40 02:39:05 14° 273° (W) 02:41:21 437.305
SPROUT 04 Aug 02:38:38 02:39:10 10° 278° (W) 02:39:28 437.525
DUCHIFAT 1 04 Aug 02:40:12 02:42:57 17° 303° (WNW) 02:45:37 145.980
NANOSAT C BR1 04 Aug 02:45:59 02:48:28 15° 304° (NW) 02:50:50 145.865
QB50P1 04 Aug 02:45:59 02:48:27 15° 304° (NW) 02:50:48 145.935-145.965
BEESAT 2 04 Aug 02:48:29 02:51:52 23° 336° (NNW) 02:55:12 435.950
JAS-2 04 Aug 02:54:13 02:58:13 15° 76° (ENE) 03:02:36 435.910
BEESAT 04 Aug 02:54:40 02:59:19 47° 261° (W) 03:03:58 436.000
KKS-1 04 Aug 02:59:44 03:03:57 45° 67° (ENE) 03:08:13 437.445
AIST 2 04 Aug 03:01:45 03:05:47 39° 325° (NW) 03:09:49 435.215
ISS 04 Aug 03:12:32 03:14:59 19° 214° (SSW) 03:17:24 145.825
RS-15 04 Aug 03:14:49 03:25:38 46° 6° (N) 03:36:59 29.354- 29.394
SWISSCUBE 04 Aug 03:16:18 03:20:33 30° 266° (W) 03:24:46 437.505
BEESAT 3 04 Aug 03:25:21 03:28:07 17° 347° (NNW) 03:30:50 437.485
Cosmos 2504 04 Aug 03:28:40 03:35:53 69° 95° (E) 03:43:45 435.465 / 435.565
O/OREOS (USA 219) 04 Aug 03:36:44 03:40:53 34° 311° (NW) 03:45:03 437.305
ITUPSAT 1 04 Aug 03:39:27 03:43:13 22° 270° (W) 03:46:55 437.325
Gurwin Techsat 1B 04 Aug 03:52:48 03:58:01 53° 100° (E) 04:03:13 435.225
ITAMSAT 1 04 Aug 03:57:50 04:02:54 50° 100° (E) 04:07:56 435.822/435.867
STARS 04 Aug 04:01:40 04:06:03 79° 255° (WSW) 04:10:29 437.465
Oscar 19 04 Aug 04:09:45 04:14:41 46° 294° (WNW) 04:19:38 437.125/150
AO-7 04 Aug 04:10:34 04:16:19 21° 84° (E) 04:22:22 29.400- 29.500
MOZHAYETS 4 04 Aug 04:11:35 04:15:47 35° 65° (ENE) 04:20:02
YUBILEINY 04 Aug 04:14:19 04:20:27 20° 316° (NW) 04:26:20 435.215
CUSAT 1 04 Aug 04:21:10 04:22:53 16° 93° (E) 04:24:39 437.405
DANDE 04 Aug 04:23:39 04:24:11 10° 92° (E) 04:24:50 436.750
BEESAT 2 04 Aug 04:28:44 04:31:13 15° 360° (N) 04:33:41 435.950
KKS-1 04 Aug 04:37:02 04:40:48 26° 267° (W) 04:44:30 437.445
JAS-2 04 Aug 04:37:20 04:45:03 59° 98° (E) 04:52:44 435.910
CUBESAT XI-V 04 Aug 04:41:20 04:41:42 10° 50° (NE) 04:42:14 437.345
AIST 2 04 Aug 04:42:28 04:45:24 18° 348° (NNW) 04:48:19 435.215
GONETS M04 04 Aug 05:01:56 05:07:23 19° 73° (ENE) 05:13:12
BEESAT 3 04 Aug 05:04:48 05:07:27 16° 11° (N) 05:10:07 437.485
O/OREOS (USA 219) 04 Aug 05:20:38 05:21:45 11° 335° (NNW) 05:22:46 437.305
Cosmos 2504 04 Aug 05:22:13 05:28:52 33° 300° (WNW) 05:35:52 435.465 / 435.565
HORYU 2 04 Aug 05:27:54 05:32:21 54° 101° (E) 05:36:47 437.375
RS-15 04 Aug 05:28:38 05:40:12 71° 37° (NE) 05:52:19 29.354- 29.394
Gurwin Techsat 1B 04 Aug 05:33:08 05:37:49 31° 299° (WNW) 05:42:24 435.225
ITAMSAT 1 04 Aug 05:37:41 05:42:15 31° 299° (WNW) 05:46:44 435.822/435.867
STARS 04 Aug 05:41:54 05:43:21 11° 276° (W) 05:44:35 437.465
MOZHAYETS 4 04 Aug 05:48:39 05:52:59 37° 264° (W) 05:57:20
Oscar 19 04 Aug 05:51:35 05:52:57 11° 314° (NW) 05:54:08 437.125/150
AO-7 04 Aug 06:02:18 06:10:43 77° 108° (ESE) 06:19:03 29.400- 29.500
PRISM 04 Aug 06:03:04 06:05:03 13° 55° (NE) 06:07:10 437.425
CUSAT 1 04 Aug 06:03:22 06:05:20 18° 294° (WNW) 06:07:19 437.405
DANDE 04 Aug 06:04:35 06:07:04 29° 289° (WNW) 06:09:25 436.750
BEESAT 2 04 Aug 06:07:17 06:10:35 22° 23° (NNE) 06:13:52 435.950
CUBESAT XI-V 04 Aug 06:13:41 06:18:11 50° 69° (ENE) 06:22:42 437.345
STRAND 1 04 Aug 06:19:25 06:23:38 27° 59° (ENE) 06:27:56 437.568
AIST 2 04 Aug 06:22:29 06:25:24 18° 12° (NNE) 06:28:19 435.215
JAS-2 04 Aug 06:22:38 06:29:55 44° 299° (WNW) 06:37:10 435.910
Cubesat XI-IV 04 Aug 06:33:24 06:36:04 14° 83° (E) 06:38:58 437.490
Cosmos 2499 04 Aug 06:33:57 06:38:06 16° 71° (ENE) 06:42:46 435.465 / 435.565
BEESAT 3 04 Aug 06:42:39 06:46:27 35° 34° (NNE) 06:50:13 437.485
GONETS M04 04 Aug 06:54:13 07:02:50 73° 96° (E) 07:11:32
HORYU 2 04 Aug 07:05:02 07:08:43 25° 300° (WNW) 07:12:20 437.375
Cosmos 2504 04 Aug 07:23:28 07:24:25 10° 330° (NNW) 07:25:02 435.465 / 435.565
CUTE-I 04 Aug 07:26:59 07:31:52 36° 95° (E) 07:36:46 437.470
PRISM 04 Aug 07:35:41 07:39:52 81° 73° (ENE) 07:44:04 437.425
RS-15 04 Aug 07:41:23 07:52:31 52° 243° (WSW) 08:03:57 29.354- 29.394
BEESAT 2 04 Aug 07:45:07 07:49:15 77° 45° (NE) 07:53:18 435.950
CUBESAT XI-V 04 Aug 07:51:59 07:55:54 25° 269° (W) 07:59:45 437.345
AO-7 04 Aug 07:55:35 08:03:00 37° 310° (NW) 08:10:17 29.400- 29.500
STRAND 1 04 Aug 07:57:27 08:02:33 60° 258° (WSW) 08:07:39 437.568
AIST 2 04 Aug 08:01:01 08:05:01 39° 35° (NE) 08:08:58 435.215
BRITE-PL 04 Aug 08:01:41 08:03:23 12° 85° (E) 08:05:21 437.365/2234.400
JAS-2 04 Aug 08:08:58 08:13:15 16° 321° (NW) 08:17:20 435.910
Cubesat XI-IV 04 Aug 08:11:48 08:17:11 78° 104° (ESE) 08:22:31 437.490
HO-68 04 Aug 08:18:38 08:20:19 11° 76° (ENE) 08:22:30 435.675
M-CUBED/EXP-1 PRIME 04 Aug 08:20:03 08:23:07 19° 49° (NE) 08:26:23 437.505
BEESAT 3 04 Aug 08:20:35 08:24:30 46° 235° (SW) 08:28:21 437.485
Cosmos 2499 04 Aug 08:22:08 08:29:37 66° 94° (E) 08:37:49 435.465 / 435.565
O/OREOS (USA 219) 04 Aug 08:43:49 08:45:15 11° 26° (NNE) 08:46:49 437.305
AUBIESAT-1 04 Aug 08:45:38 08:49:12 25° 53° (NE) 08:53:00 437.475
SO-50 04 Aug 08:49:09 08:51:52 15° 112° (ESE) 08:54:47 436.795
GONETS M04 04 Aug 08:52:46 09:00:36 35° 301° (WNW) 09:08:19
